Regional Weather Roundup
Issued by NWS Newport/Morehead, NC

Current Version | Previous Version | Text Only | Print | Product List | Glossary On
Versions: 1 2 3 4 5 6 7 8 9 10 11 12 13 14 15 16 17 18 19 20 21 22 23 24 25 26 27 28 29 30 31 32 33 34 35 36 37 38 39 40 41 42 43 44 45 46 47 48 49 50
177
ASUS42 KMHX 192025
RWRMHX
WEATHER ROUNDUP FOR EASTERN NORTH CAROLINA
NATIONAL WEATHER SERVICE NEWPORT/MOREHEAD CITY NC
300 PM EST SUN FEB 19 2017

NOTE: "FAIR" INDICATES FEW OR NO CLOUDS BELOW 12,000 FEET
WITH NO SIGNIFICANT WEATHER AND/OR OBSTRUCTIONS TO VISIBILITY

NCZ015>017-031-032-045>047-102-103-192100-
NORTH COAST

CITY           SKY/WX    TMP DP  RH WIND       PRES   REMARKS
EDENTON        SUNNY     74  46  36 N6        29.92R
ELIZABETH CITY SUNNY     72  45  37 N7        29.91R
KITTY HAWK     NOT AVBL
MANTEO         SUNNY     65  45  47 N7        29.92R

$$

NCZ045>047-081-094-103-104-192100-
CENTRAL COAST

CITY           SKY/WX    TMP DP  RH WIND       PRES   REMARKS
FRISCO         SUNNY     64  46  52 W5        29.91S

$$

NCZ095-097-098-100-101-192100-
SOUTHERN COAST

CITY           SKY/WX    TMP DP  RH WIND       PRES   REMARKS
BEAUFORT       SUNNY     68  48  48 SW8       29.91R
CEDAR ISLAND   NOT AVBL
JACKSONVILLE   SUNNY     73  44  35 NW13      29.92R
PINEY ISLAND   CLEAR    N/A N/A N/A NE6       29.91R
WILMINGTON     SUNNY     73  47  39 W13G18    29.93S


$$

NCZ011>013-027>030-043-044-078>080-089-090>093-098-192100-
COASTAL PLAIN

CITY           SKY/WX    TMP DP  RH WIND       PRES   REMARKS
AHOSKIE          N/A     71  46  40 NW7       29.93S
CLINTON        SUNNY     71  48  43 NW6       29.95S
ELIZABETHTOWN  SUNNY     71  45  39 NW9       29.96R
GOLDSBORO      SUNNY     72  41  32 NW8       29.92S
GREENVILLE     SUNNY     75  43  31 N10       29.95R
HAVELOCK       SUNNY     74  42  31 N14       29.92R
KENANSVILLE    NOT AVBL
KINSTON        SUNNY     72  39  30 W8        29.94S
NEW BERN       SUNNY     73  43  33 NW12      29.92S
RICHLANDS      SUNNY     72  46  39 W9        29.93S
ROCKY MOUNT    SUNNY     72  44  36 NW13      29.94R
WASHINGTON     SUNNY     73  44  35 N9        29.92R
WHITEVILLE     SUNNY     71  47  41 NW5       29.95F

$$

AMZ130-135-150-152-154-156-158-170-250-252-270-ANZ085-086-088-633-658-670-192100-
MARINE OBSERVATIONS

STATION/POSITION TIME  TEMP    WIND        PRES    WAVE   SWELL
                       AIR SEA DIR/SP/G            HT/PER HT/PER
                 (UTC) (F)     (DEG/KT/KT) (MB)    (FT/S) (FT/S)
CHESAPEAKE LIGHT NOT AVBL
64 E VA BEACH    1950   53 52  250/  8/  8 1012.1    2/ 5   2/ 5
DUCK             2000   59 47  360/  6/  7 1012.4
2 E DUCK         2000      51                N/A     1/11
OREGON INLET     2000   65 51  350/  8/ 13 1012.4
13E OREGON INLT  NOT AVBL
HATTERAS CG      2000   59 56  280/  4/  5 1012.5
DIAMOND BUOY     1950   59 67  310/ 10/ 12 1012.7    2/ 7   2/ 7
CAPE LOOKOUT     2000   64     260/  9/ 12 1012.7
BEAUFORT LAB     2000   64 52  200/  7/  7 1012.1
30 SE NEW RVR IN 2008   62     270/  6/ 10 1013.7
30 SE NEW RVR IN 2013      64                N/A     2/ 6
27 SE WRIGHTSVLE 2008   60 61  260/ 12/ 14 1012.6
5 SE WRIGHTSVLE  2008   64 57  320/  6/ 10 1013.3
225 S CAPE HAT   1950   66 71  220/ 16/ 19 1011.2    5/ 6   2/ 9
41 SE CHARLESTON 1950   64 69  250/ 12/ 14 1014.9    2/ 6   2/ 6

$$




USA.gov is the U.S. government's official web portal to all federal, state and local government web resources and services.